Location: Veytaux
(46.4185°N, 6.9320°E)
Time: 08:51:21
(UTC+00:00)

NOSS 3-3 (C) - Pass Details

Date: 27 May 2022
Orbit: 780 x 1432 km, 63.4° (Epoch: 28 June)

Event Time Altitude Azimuth Distance (km) Brightness Sun altitude
Exits shadow 02:30:58 13° 210° (SSW) 2,201 5.2 -10.9°
Maximum altitude 02:35:55 78° 126° (SE) 926 3.9 -10.3°
Drops below altitude 10° 02:42:23 10° 41° (NE) 2,801 8.1 -9.5°
Sets 02:45:12 0° 40° (NE) 3,858 9.5 -9.1°
